Location: Arroyo La Higuera
(27.2893°N, 113.1214°W)
Time: 06:23:04
(UTC+00:00)

Daily predictions for brighter satellites

Satellite Brightness Start Highest point End
(mag) Time Altitude Azimuth Time Altitude Azimuth Time Altitude Azimuth
BREEZE-M DEB (TANK) 4.3 12:05:26 11° NNE 12:05:27 11° NNE 12:06:20 10° NE
Palapa 6 Rocket 4.0 12:06:58 27° SSW 12:07:50 30° SSE 12:11:33 10° ESE
ADEOS 3.4 12:03:27 10° N 12:08:40 79° WNW 12:13:52 10° SSW
Cosmos 1484 Rocket 2.5 12:05:13 10° N 12:09:01 82° WNW 12:12:45 10° SSW
Cosmos 2026 Rocket 4.5 12:10:01 10° S 12:16:15 65° E 12:22:33 10° NNE
Cosmos 292 Rocket 4.1 12:15:44 40° W 12:16:21 42° WSW 12:20:54 10° S
Intercosmos 24 4.4 12:13:02 10° N 12:16:30 52° E 12:20:15 10° SSE
Cosmos 1833 Rocket 3.8 12:17:48 25° NW 12:17:48 25° NW 12:21:27 10° N
Delta 128 4.3 12:16:20 32° SW 12:17:20 36° SSW 12:21:35 10° SE
Gblst 52 Del rocket 4.1 12:14:26 18° SW 12:18:35 89° SSE 12:24:32 10° NE
Cosmos 2195 Rocket 4.5 12:14:51 10° S 12:21:07 86° E 12:27:18 10° N
ATLAS 3B R/B 3.3 12:26:50 25° W 12:29:09 31° NW 12:34:55 10° N
Cosmos 44 Rocket 3.3 12:25:06 12° NNW 12:29:59 79° WSW 12:35:10 10° SSE
CZ-4B R/B 3.3 12:26:55 10° NNE 12:31:05 69° ESE 12:35:24 10° S
Meteor 1-24 Rocket 3.7 12:25:41 10° SSW 12:31:05 61° W 12:36:44 10° N
Meteor 1-31 Rocket 2.9 12:29:41 10° N 12:33:31 52° WNW 12:37:19 10° SSW
Cosmos 1726 Rocket 4.0 12:29:39 10° N 12:34:05 65° E 12:38:29 10° SSE
USA 290 4.4 12:37:59 13° NNW 12:37:59 13° NNW 12:38:31 10° NNW
Cosmos 2082 Rocket 2.8 12:33:49 13° SW 12:38:11 32° WNW 12:43:11 10° N
METEOR-M 4.2 12:33:09 10° N 12:38:20 53° WNW 12:43:30 10° SSW
ATLAS CENTAUR Rocket 3.2 12:36:29 17° WSW 12:38:26 23° SSW 12:41:33 10° SSE
ATLAS CENTAUR R/B 2.5 12:34:58 10° S 12:38:52 43° ESE 12:42:35 10° NE
ADEOS Rocket 3.4 12:34:45 10° SSW 12:39:35 30° W 12:44:22 10° NW
ARGOS Delta rocket 4.1 12:34:13 10° N 12:39:40 71° WNW 12:45:05 10° SSW
Cosmos 2228 3.0 12:37:28 10° NNW 12:41:49 68° W 12:46:10 10° S
Cosmos 2369 3.9 12:36:23 10° NNW 12:42:02 77° ENE 12:47:39 10° SSE
Cosmos 1992 Rocket 4.3 12:38:47 10° N 12:43:58 70° ENE 12:49:09 10° SSE
Cosmos 1656 4.2 12:41:58 10° NW 12:47:08 36° WSW 12:52:15 10° SSW
ERS-2 2.7 12:45:01 10° SSW 12:48:20 34° W 12:51:40 10° NNW
COSMO-SKYMED 1 3.2 12:44:16 10° SSE 12:48:32 60° ENE 12:52:48 10° N
SAR-Lupe-4 3.4 12:45:30 10° S 12:49:04 83° WSW 12:52:38 10° NNW
Cosmos 1606 Rocket 3.6 12:45:13 10° NNW 12:49:37 58° W 12:53:59 10° S
H-2A R/B 3.7 12:48:01 10° SW 12:50:44 16° W 12:51:14 16° W
Mugunghwa Rocket 4.4 12:45:13 16° W 12:51:45 83° S 12:58:46 10° E
ALOS 3.2 12:48:55 10° NNW 12:52:43 25° WNW 12:56:32 10° SW
Cosmos 1092 Rocket 4.5 12:53:51 10° SW 12:59:25 36° W 13:05:04 10° NNW
Cosmos 614 Rocket 4.2 12:55:36 10° SSW 13:00:34 48° WNW 13:05:31 10° N
Cosmos 1400 Rocket 2.7 13:01:33 10° NNW 13:05:24 63° W 13:09:13 10° S
SAR-Lupe-1 4.3 13:03:31 10° S 13:06:56 47° W 13:10:23 10° NNW
Cosmos 220 Rocket 4.3 13:06:20 10° NNW 13:10:34 46° WSW 13:14:45 10° S
Cosmos 1697 Rocket 3.0 13:05:24 10° NNW 13:10:45 45° WSW 13:16:06 10° S
Okean 1-7 Rocket 4.2 13:06:47 10° SSW 13:10:57 36° W 13:15:08 10° NNW
Meteor 2-19 Rocket 4.4 13:04:54 10° S 13:11:00 80° W 13:17:05 10° N
Meteor 1-21 Rocket 4.4 13:10:56 10° S 13:16:39 89° ESE 13:22:32 10° N
CZ-2C R/B 3.1 13:16:25 10° SW 13:17:23 11° SW 13:18:22 10° SSW
Cosmos 1023 Rocket 4.5 13:15:09 10° SSW 13:20:10 61° WNW 13:25:12 10° N
Cosmos 1655 Rocket 4.2 13:14:19 10° S 13:20:34 85° E 13:26:53 10° N
